カタログに戻る

STARLINK-32607

運用中通信VLEO
NORAD 61977·PAYLOAD·🇺🇸 United States

打ち上げ Nov 14, 2024 から Cape Canaveral Space Force Station

Loading…

次のパス (今後24時間)

TLE

最新Source: CelesTrak SupGP

元期: Sep 15, 2026, 03:15 UTC

1 61977C 24210U   26258.13590278 -.00040835  00000+0 -14791-2 0  2580
2 61977  43.0009 190.1059 0001278 273.9239   0.3820 15.27597138    18

AllMySatでSTARLINK-32607をリアルタイム追跡

Download on the App Store